Regional Weather Roundup
Issued by NWS

Home | Current Version | Previous Version | Text Only | Print | Product List | Glossary On
Versions: 1 2 3 4 5 6 7 8 9 10 11 12 13 14 15 16 17 18 19 20 21 22 23 24 25 26 27 28 29 30 31 32 33 34 35 36 37 38 39 40 41 42 43 44 45 46 47 48 49 50
000
ASHW40 PHFO 020743
RWRHI

WEATHER ROUNDUP FOR HAWAII
NATIONAL WEATHER SERVICE HONOLULU HI
900 PM HST MON SEP 01 2014

THIS IS AN AUTOMATED REPORT THAT HAS NOT BEEN QUALITY CONTROLLED.

NOTE..."FAIR" INDICATES FEW OR NO CLOUDS BELOW 12,000 FEET WITH NO
SIGNIFICANT WEATHER AND/OR OBSTRUCTIONS TO VISIBILITY.

* - THESE SITES REPORT LIMITED FIELDS

HIZ001>004-020800-
KAUAI-NIIHAU-

CITY           SKY/WX    TMP DP  RH WIND       PRES   REMARKS
LIHUE APT      PTCLDY    80  70  71 E8        30.05R
PORT ALLEN*      N/A     79 N/A N/A N5          N/A
POIPU*           N/A     79 N/A N/A NE5G10      N/A
PRINCEVILLE*   NOT AVBL
KOKOLE POINT*  NOT AVBL
MOLOAA DAIRY*  NOT AVBL
WAIMEA HTS*      N/A     75  66  73 N2          N/A
PUU OPAE*        N/A     70  64  83 CALM        N/A
PUU LUA*       NOT AVBL
MAKAHA RIDGE*  NOT AVBL
$$

HIZ005>011-020800-
OAHU-

CITY           SKY/WX    TMP DP  RH WIND       PRES   REMARKS
HONOLULU       PTCLDY    80  68  66 N5        30.03R
KALAELOA       CLEAR     78  67  68 CALM      30.04R
KANEOHE MCB    CLOUDY    73  73 100 W3        30.05S FOG
WHEELER FIELD  FAIR      70  66  86 W2        30.05R
BELLOWS*         N/A    N/A N/A N/A SW6         N/A
KAHUKU*          N/A    N/A N/A N/A E2          N/A
WHEELER*       NOT AVBL
WAIANAE HARBOR NOT AVBL
DILLINGHAM*      N/A     73  68  83 E1          N/A
KAHUKU TRN*      N/A     75  70  83 SE3G12      N/A
KAWAILOA*      NOT AVBL
KII*             N/A     77  72  83 SE7         N/A
MAKUA RANGE*     N/A     77  68  73 SE5         N/A
OAHU FOREST NW   N/A     68  68 100 N8G16       N/A
SCHOFIELD BRK*   N/A     70  64  83 MISG        N/A
SCHOFIELD S*   NOT AVBL
WAIANAE VLY*     N/A     72  66  83 N5          N/A
KUAOKALA*        N/A     75  66  73 CALM        N/A
HONOULIUULI*   NOT AVBL
MOKUOLOE IS*     N/A    N/A N/A N/A MISG        N/A
PALEHUA*         N/A     82  70  65 CALM        N/A
WAIAWA PHB*    NOT AVBL
$$

HIZ012>013-020800-
MOLOKAI-

CITY           SKY/WX    TMP DP  RH WIND       PRES   REMARKS
MOLOKAI AIRPT  CLEAR     75  73  93 NE5       30.04R
KALAUPAPA      NOT AVBL
MAKAPULAPAI*     N/A     79  72  78 E12G18      N/A
MOLOKAI 1*       N/A     66  66 100 VRB2        N/A
PUU ALII*        N/A     61  60  96 E1          N/A
$$

HIZ016-020800-
KAHOOLAWE-

CITY           SKY/WX    TMP DP  RH WIND       PRES   REMARKS
KAHOOLAWE*       N/A     72 N/A N/A E15G21      N/A
HAKIOAWA*      NOT AVBL
HONOKANAIA*      N/A     79  69  70 NE12G17   30.04R
KANELOA*         N/A     77  72  83 E13G22    29.25R
KEALIALALO*    NOT AVBL
LUA MAKIKA*    NOT AVBL
$$

HIZ014>015-020800-
LANAI-

CITY           SKY/WX    TMP DP  RH WIND       PRES   REMARKS
LANAI CITY     FAIR      74  70  87 NE10      30.09R
LANAI 1*         N/A     73  73 100 NE13G20     N/A
$$

HIZ017>028-020800-
MAUI-

CITY           SKY/WX    TMP DP  RH WIND       PRES   REMARKS
KAHULUI        CLEAR     77  70  79 CALM      30.03R
KAPALUA-W MAUI NOT AVBL
HANA AIRPORT   NOT AVBL
HANA*            N/A     77 N/A N/A SE3         N/A
HALEAKALA SUMM NOT AVBL
MAALAEA BAY*   NOT AVBL
HALEAKALA*     NOT AVBL
KAUPO GAP*       N/A     63  63 100 SW1         N/A
KULA 1*          N/A     55  49  81 E3          N/A
$$

HIZ023>026-020800-
BIG ISLAND OF HAWAII COAST AND LOWER SLOPES-

CITY           SKY/WX    TMP DP  RH WIND       PRES   REMARKS
KAILUA KONA    PTCLDY    82  73  74 S6        30.00R
HILO           CLOUDY    77  73  87 SW3       30.05R
HONOKAA*       NOT AVBL
KAWAIHAE MWT*    N/A     82 N/A N/A W3          N/A
KAWAIHAE*        N/A     82 N/A N/A W3          N/A
SOUTH POINT*     N/A     73 N/A N/A NE12        N/A
UPOLU AIRPORT*   N/A    N/A N/A N/A E12G18      N/A
KAMUELA*       NOT AVBL
HAKALAU*         N/A     50  48  93 CALM        N/A
KALOKO-HONOKO*   N/A     81  72  74 S3          N/A
PALI 2*          N/A     68  64  88 NE10G16     N/A
KEALAKOMO*     NOT AVBL
KAUPULEHU*       N/A     75  63  64 NE7G13      N/A
KAPAPALA*        N/A     70  67  92 CALM        N/A
LOWER KAHUKU*  NOT AVBL
PUHE CS*       NOT AVBL
PUHO CS*         N/A     80  70  71 SW2         N/A
PTA KEAMUKU*     N/A     61  57  88 SE1         N/A
WAIKOLOA*        N/A     75  64  69 NE3G14      N/A
$$

HIZ027>028-020800-
BIG ISLAND OF HAWAII INTERIOR AND SUMMMITS-

CITY           SKY/WX    TMP DP  RH WIND       PRES   REMARKS
BRADSHAW FIELD CLOUDY    57  53  86 N2        30.40R
MK VISITOR CEN NOT AVBL
MAUNA KEA*     NOT AVBL
MAUNA LOA*       N/A     43  37  81 MISG        N/A
MAUNA LOA 1*   NOT AVBL
PTA KIPUKA*      N/A     57  55  94 E2          N/A
PTA RANGE 17*    N/A     57  55  94 SE1         N/A
PTA WEST*        N/A     61  57  88 SE5         N/A
NENE CABIN*    NOT AVBL
AHUMOA*          N/A     56  49  79 E6          N/A
PTA PORTABLE*  NOT AVBL
PUU MALI*      NOT AVBL
$$

HIC003-020800-
NORTHWEST ISLANDS-

CITY           SKY/WX    TMP DP  RH WIND       PRES   REMARKS
MIDWAY ISLAND  CLEAR     81  72  74 CALM      29.98R
MIDWAY NOS*    NOT AVBL
FRENCH FRIGATE NOT AVBL
$$

PHZ110>124-180-020800-
BUOY REPORTS

STATION/POSITION TIME  TEMP    WIND        PRES    WAVE   SWELL
                       AIR SEA DIR/SP/G            HT/PER HT/DIR
                 (UTC) (F)     (DEG/KT/KT) (MB)    (FT/S) (FT/D)
BUOY 51001       NOT AVBL
BUOY 51101       NOT AVBL
BUOY 51100       0700   79 80  100/ 12/ 16 1018.3R
BUOY 51003       0700   81 82   80/  8/ 10 1016.0R   6/11   5
BUOY 51004       0642   80 81   70/ 14/ 16 1015.7R   6/ 9   5/100
BARBERS PT BUOY  NOT AVBL
WAIMEA BAY BUOY  0700      81                N/A     2/ 7   2/ 40
KAILUA BAY BUOY  0700      81                N/A     4/11   2/ 80
LANAI BUOY       NOT AVBL
BARBERS PT 2     0700      82                N/A     4/13   3/190
PAUWELA MAUI     0700      81                N/A     4/10   2/ 70
HILO             NOT AVBL
KANEOHE BAY BUOY 0700      81                N/A     3/11   2/ 60
HANALEI KAUAI    NOT AVBL
KAHULUI HARBOR   0700   79 83   40/  4/  6 1016.7R
HONOLULU HARBOR  0700   80      80/  2/  5 1017.3R
KILO NALU        NOT AVBL
HILO HARBOR      0700   77     220/  4/  5 1017.0R
MOKUOLOE         0700      85              1017.7R
NAWILIWILI       0700      83                N/A
WHOTS BUOY       NOT AVBL
BUOY 51028       NOT AVBL
$$

......................KEY........................................
  SKY/WX - SKY CONDITIONS/PRESENT WEATHER
  TMP    - TEMPERATURE IN FAHRENHEIT
  DWPT   - DEWPOINT IN FAHRENHEIT
  RH     - RELATIVE HUMIDITY IN PERCENT
  WIND   - DIRECTION AND SPEED /MPH FOR ISLANDS...KTS FOR BUOYS/
  PRES   - MEAN SEA LEVEL PRESSURE IN INCHES OF HG
  VSB    - VISIBILITY IN MILES
  HX     - HEAT INDEX
  WCI    - WIND CHILL INDEX
  VRB    - VARIABLE WIND DIRECTION
  N/A    - NOT AVAILABLE



USA.gov is the U.S. government's official web portal to all federal, state and local government web resources and services.